Regional Weather Roundup
Issued by NWS

Home | Current Version | Previous Version | Graphics & Text | Print | Product List | Glossary On
Versions: 1 2 3 4 5 6 7 8 9 10 11 12 13 14 15 16 17 18 19 20 21 22 23 24 25 26 27 28 29 30 31 32 33 34 35 36 37 38 39 40 41 42 43 44 45 46 47 48 49 50
000
ASUS43 KLOT 230208
RWRIL

ILLINOIS REGIONAL WEATHER ROUNDUP
NATIONAL WEATHER SERVICE CHICAGO/ROMEOVILLE IL
800 PM CST WED NOV 22 2017

NOTE: "FAIR" INDICATES FEW OR NO CLOUDS BELOW 12,000 FEET WITH NO
SIGNIFICANT WEATHER AND/OR OBSTRUCTIONS TO VISIBILITY.

* THESE STATIONS ARE NOT UNDER NWS QUALITY CONTROL. THEY ALSO MAY NOT
  REPORT WEATHER SUCH AS PRECIPITATION OR FOG.

ILZ001-002-007-009-015-016-024-230300-
NORTHWEST ILLINOIS

CITY           SKY/WX    TMP DP  RH WIND       PRES   REMARKS
MOLINE         CLOUDY    34  16  47 S6        30.21R WCI  29
STERLING*      MOCLDY    31  22  69 MISG      30.21F
SAVANNA*       CLOUDY    32  19  59 S6        30.20F WCI  26
$$

ILZ003-004-008-010-011-017-018-230300-
NORTH CENTRAL ILLINOIS

CITY           SKY/WX    TMP DP  RH WIND       PRES   REMARKS
ROCKFORD       CLOUDY    30  18  60 S7        30.22F WCI  23
FREEPORT*      CLOUDY    29  20  70 S5        30.21R WCI  24
ROCHELLE*      CLOUDY    29  25  82 S7        30.21F WCI  22
DE KALB*       CLOUDY    28  22  78 S6        30.21F WCI  22
PERU*          PTCLDY    30  19  63 S5        30.23F WCI  25
$$

ILZ005-006-012>014-019>023-230300-
NORTHEAST ILLINOIS

CITY           SKY/WX    TMP DP  RH WIND       PRES   REMARKS
CHICAGO-OHARE  CLOUDY    32  18  56 SW7       30.22F WCI  26
CHICAGO-MIDWAY CLOUDY    32  18  56 SW6       30.22F WCI  26
AURORA         CLOUDY    30  21  69 SE3       30.22F
LANSING*       PTCLDY    28  23  79 S5        30.24F WCI  23
JOLIET*        PTCLDY    32  20  62 CALM      30.24S
WAUKEGAN       CLOUDY    31  19  61 SW8       30.20F WCI  23
DUPAGE AIRPORT CLOUDY    30  19  63 SW7       30.22F WCI  23
KANKAKEE*      PTCLDY    28  22  81 SE5       30.25F WCI  22
WHEELING       CLOUDY    32  18  56 SW6       30.24F WCI  26
MORRIS*        PTCLDY    31  21  66 CALM      30.23S
ROMEOVILLE*    CLOUDY    30  22  73 SW3       30.24S
NORTHERLY ISL    N/A     32  16  52 S7          N/A  WCI  26
$$

LMZ740>746-230300-
SOUTHERN LAKE MICHIGAN

STATION/POSITION SKY/WX   TEMP    WIND        PRES    VSBY  WAVE
                          AIR SEA DIR/SP/G                  HT/PER
                          (F)     (DEG/KT/KT) (MB)    (MI)  (FT/S)
SOUTHERN BUOY              35 47  250/ 10/ 14 1024.3          1/ 6
HARRISON CRIB              34     220/ 10/ 13   N/A
BURNHAM HARBOR             32     170/  4/  8   N/A
CALUMET HARBOR             32     190/  4/  5 1022.9F
BURNS HARBOR               33     220/  5/ 10 1024.7F
MICHIGAN CITY              32     200/  8/ 10   N/A
$$

ILZ025>027-034>036-040-047-049-050-058-095>099-230300-
WEST-CENTRAL ILLINOIS

CITY           SKY/WX    TMP DP  RH WIND       PRES   REMARKS
QUINCY         PTCLDY    33  18  53 S6        30.22F WCI  28
GALESBURG*     CLOUDY    32  22  67 S7        30.22S WCI  26
MACOMB*        PTCLDY    31  22  68 S5        30.24F WCI  26
JACKSONVILLE*  PTCLDY    29  20  69 CALM      30.25S
PITTSFIELD*    CLOUDY    33  18  53 CALM      30.26S
$$

ILZ028>032-037-038-041>044-048-051>054-059>061-230300-
CENTRAL ILLINOIS

CITY           SKY/WX    TMP DP  RH WIND       PRES   REMARKS
PONTIAC        CLOUDY    31  23  71 SW3       30.25S
BLOOMINGTON    PTCLDY    29  21  72 SW5       30.24F WCI  24
DECATUR        MOCLDY    29  21  72 CALM      30.25F
PEORIA         MOCLDY    32  20  61 S5        30.24F WCI  27
LACON*         CLOUDY    31  19  61 S5        30.22F WCI  26
LINCOLN*       PTCLDY    31  23  73 CALM      30.25F
SPRINGFIELD    PTCLDY    30  21  69 S3        30.26S
TAYLORVILLE    CLOUDY    29  22  74 CALM      30.26S
$$

ILZ033-039-045-046-055>057-062-063-230300-
EAST-CENTRAL ILLINOIS

CITY           SKY/WX    TMP DP  RH WIND       PRES   REMARKS
CHAMPAIGN      PTCLDY    30  21  69 CALM      30.25F
DANVILLE*      PTCLDY    28  23  83 CALM      30.23S
RANTOUL*       CLOUDY    31  25  77 CALM      30.24F
MATTOON        PTCLDY    27  21  78 CALM      30.25F
PARIS*         CLOUDY    27  25  91 CALM      30.26F
$$

ILZ079-100>102-230300-
SOUTHWEST ILLINOIS

CITY           SKY/WX    TMP DP  RH WIND       PRES   REMARKS
ALTON          MOCLDY    28  23  80 CALM      30.27F
BELLEVILLE     CLOUDY    28  21  75 CALM      30.26F
CAHOKIA*       CLOUDY    30  19  63 SE5       30.26F WCI  25
SPARTA*        CLOUDY    29  22  73 CALM      30.28F
$$

ILZ064>066-069>071-074>076-080>082-084>086-088>090-092>094-230300-
SOUTH-CENTRAL ILLINOIS

CITY           SKY/WX    TMP DP  RH WIND       PRES   REMARKS
CARBONDALE     CLOUDY    26  22  84 CALM      30.30S
CAIRO*         CLEAR     30  23  74 CALM      30.29F
EFFINGHAM*     CLOUDY    27  22  80 CALM      30.28F
MARION         PTCLDY    28  22  81 CALM      30.31R
MT. VERNON     CLOUDY    24  22  91 CALM      30.29F
CENTRALIA*     PTCLDY    28  25  89 SE3       30.27F
SALEM*         CLOUDY    30  21  69 CALM      30.27F
METROPOLIS*    CLOUDY    29  22  74 CALM      30.30S
$$

ILZ067-068-072-073-078-083-087-091-230300-
SOUTHEAST ILLINOIS

CITY           SKY/WX    TMP DP  RH WIND       PRES   REMARKS
LAWRENCEVILLE  CLOUDY    30  21  69 W5        30.29S WCI  25
FLORA*         PTCLDY    28  24  84 CALM      30.29F
FAIRFIELD*     CLOUDY    27  22  79 CALM      30.28F
HARRISBURG*    CLOUDY    28  24  83 CALM      30.30R
ROBINSON*      PTCLDY    25  22  87 CALM      30.28F
CARMI*         CLOUDY    27  23  85 W3        30.30R
$$

ABBREVIATIONS USED IN REMARKS
   TC - TEMPERATURE IN CELSIUS
  WCI - WIND CHILL INDEX
   HX - HEAT INDEX
  VSB - VISIBILITY
$$




USA.gov is the U.S. government's official web portal to all federal, state and local government web resources and services.